Weather in Malaya Kema

Russia / Primorsky Krai     45°24′52″N   137°09′21″E
temp.,
°C
wind,
m/s
gust,
m/s
humid.,
%
clouds,
%
prec.,
mm/h
press.,
hPa
HPBL,
m
29 june, wed
wed2901:00+15nne3493100 0.4 100163
04:00+14nne339593 0.6 100139
07:00+14ne2296100 0.5 100333
10:00+14ene1198100 0.5 100454
13:00+17e338199 0.0 1005373
16:00+16e2284100 0.0 1006309
19:00+15ese1192100 0.0 1007136
22:00+13nne2298100 0.0 100921
30 june, thu
thu3001:00+12nne119892 0.0 100918
04:00+12ne1197100 0.0 101031
07:00+13ene1196100 0.1 101293
10:00+15ese2284100 0.1 1013300
13:00+16se328093 0.0 1013317
16:00+16se228188 0.0 1013284
19:00+13sse1191100 0.0 1014103
22:00+13sw0093100 0.0 101519
1 july, fri
fri101:00+13sse0091100 0.0 101511
04:00+13s1188100 0.1 101511
07:00+15nw1184100 0.1 101520
10:00+16sw228094 0.1 101569
13:00+20s336038 0.0 1014524
16:00+19s46653 0.0 1013312
19:00+18ssw2376100 0.0 101383
22:00+15wsw228566 0.0 101319
2 july, sat
sat201:00+15wsw2287100 0.0 101216
04:00+15wsw1188100 0.0 101116
07:00+18sw1285100 0.0 101044
10:00+22s236952 0.0 1009378
13:00+22s4571100 0.0 1008237
16:00+19sse2383100 0.0 100799
19:00+19s118891 0.1 100764
22:00+20wnw2288100 0.2 100724
3 july, sun
sun301:00+20nw3388100 0.0 100642
04:00+19nw338799 0.0 100643
07:00+20nw2383100 0.0 100680
10:00+25ene1165100 0.0 1006562
13:00+21e337899 0.2 1007301
16:00+20e3479100 1.1 1007253
19:00+17e2296100 2.3 100893
22:00+16ene22100100 7.8 1009135